Miscellaneous Local Product
Issued by NWS Hastings, NE

Home | Current Version | Previous Version | Text Only | Print | Product List | Glossary On
Versions: 1 2 3 4 5 6 7 8 9 10 11 12 13 14 15 16 17 18 19 20 21 22 23 24 25 26 27 28 29 30 31 32 33 34 35 36 37 38 39 40 41 42 43 44 45 46 47 48 49 50
000
AXUS43 KGID 280902
MISGRI

GID CWA HOURLY WEATHER ROUNDUP
NATIONAL WEATHER SERVICE HASTINGS NE
300 AM CST TUE FEB 28 2017

NOTE: "FAIR" INDICATES FEW OR NO CLOUDS BELOW 12,000 FEET WITH NO
SIGNIFICANT WEATHER AND/OR OBSTRUCTIONS TO VISIBILITY.

...SOUTH CENTRAL NEBRASKA...

CITY           SKY/WX    TMP DP  RH WIND       PRES   REMARKS
GRAND ISLAND   FOG       33  33 100 CALM      29.56S VSB 1/4
HASTINGS       CLOUDY    39  35  86 SW6       29.56R WCI  35
KEARNEY        CLOUDY    39  28  65 W12       29.58R WCI  32
ORD            CLOUDY    33  30  88 NW9       29.58R FOG     WCI  25
YORK           CLOUDY    39  39 100 S7        29.55F WCI  34
AURORA         CLOUDY    37  37  97 SW7       29.55S WCI  32
LEXINGTON      CLEAR     32  27  80 NW14      29.62R WCI  22
HOLDREGE       CLOUDY    40  22  49 W18G24    29.60R WCI  31
HEBRON         CLOUDY    45  37  73 SW7       29.57F

...NEBRASKA PANHANDLE...

CITY           SKY/WX    TMP DP  RH WIND       PRES   REMARKS
CHADRON        CLOUDY    19  17  92 CALM      29.68F
ALLIANCE       CLOUDY    25  21  85 W15       29.66F WCI  13
SCOTTSBLUFF    CLOUDY    29  18  63 W16       29.71S WCI  17
SIDNEY         CLEAR     24  20  84 NW12      29.71R WCI  13

...WESTERN AND NORTH CENTRAL NEBRASKA...

CITY           SKY/WX    TMP DP  RH WIND       PRES   REMARKS
VALENTINE      CLOUDY    29  23  78 N7        29.67R WCI  22
AINSWORTH      CLOUDY    27  26  96 N6        29.63F WCI  21
ONEILL         CLOUDY    31  30  93 N14       29.61F WCI  21
BROKEN BOW     CLEAR     33  29  85 NW13      29.62R WCI  24
IMPERIAL       CLEAR     31  24  75 NW16      29.70R WCI  20
NORTH PLATTE   CLEAR     31  25  78 NW5       29.66R WCI  26
MCCOOK         CLEAR     33  26  75 NW16      29.66R WCI  23

...EASTERN NEBRASKA...

CITY           SKY/WX    TMP DP  RH WIND       PRES   REMARKS
NORFOLK        PTCLDY    35  30  82 SE5       29.57F WCI  31
SO SIOUX CITY  PTCLDY    36  29  75 E7        29.61F WCI  30
TEKAMAH        CLOUDY    34  31  88 N6        29.61S WCI  29
COLUMBUS       CLOUDY    34  28  80 E7        29.57F WCI  28
ALBION         CLOUDY    31  29  91 CALM      29.57F FOG
OMAHA EPPLEY   CLOUDY    42  34  73 CALM      29.59F
OFFUTT AFB     CLOUDY    52  45  78 SE8       29.58F
MILLARD        CLOUDY    50  45  81 SE5       29.58F
LINCOLN        PTCLDY    45  44  97 S8        29.58S
NEBRASKA CITY  CLOUDY    52  48  87 S14       29.58F
BEATRICE       CLOUDY    49  48  96 S13       29.58S
FALLS CITY     PTCLDY    57  54  89 S10       29.61F

...NORTHERN KANSAS...

CITY           SKY/WX    TMP DP  RH WIND       PRES   REMARKS
GOODLAND       CLOUDY    28  20  71 W14       29.70R WCI  17
HILL CITY      CLOUDY    44  23  43 W16G25    29.63R
NORTON         SUNNY     37  19  48 W18       29.63R WCI  27
PHILLIPSBURG   CLEAR     45  21  39 W13       29.62R
SMITH CENTER   CLEAR     34  28  80 W7        29.60F WCI  28
HAYS             N/A     43  19  38 SW7       29.64S
RUSSELL        PTCLDY    42  21  43 SW8       29.61F
CONCORDIA      CLEAR     48  39  71 S16       29.61R
SALINA         PTCLDY    53  48  83 S12       29.65F
TOPEKA         CLOUDY    64  60  87 S15G28    29.66S



USA.gov is the U.S. government's official web portal to all federal, state and local government web resources and services.